Back to catalog

THOR ABLESTAR DEB

AliveLEO
NORAD 147·DEBRIS·🇺🇸 United States

Launched Jun 29, 1961 from Cape Canaveral Space Force Station

Loading…

Next Passes (next 24 hours)

TLE

FreshSource: Space-Track

Epoch: Sep 14, 2026, 01:48 UTC

1 00147U 61015AH  26257.07533625  .00000449  00000-0  22764-3 0  9999
2 00147  66.6159 129.5137 0048973   7.7353 352.4485 14.24388746347126

Track THOR ABLESTAR DEB in real time with AllMySat

Download on the App Store